Regional Weather Roundup
Issued by NWS Kansas City/Pleasant Hill, MO

Home | Current Version | Previous Version | Text Only | Print | Product List | Glossary On
Versions: 1 2 3 4 5 6 7 8 9 10 11 12 13 14 15 16 17 18 19 20 21 22 23 24 25 26 27 28 29 30 31 32 33 34 35 36 37 38 39 40 41 42 43 44 45 46 47 48 49 50
000
ASUS43 KEAX 280111
RWREAX

WEATHER ROUNDUP FOR EASTERN KANSAS AND NORTHWEST MISSOURI
NATIONAL WEATHER SERVICE KANSAS CITY/PLEASANT HILL MO
800 PM CDT WED MAY 27 2015

KSZ040-057-103>105-MOZ028-029-037-043-280200-
...KANSAS CITY METROPOLITAN AREA...

CITY           SKY/WX    TMP DP  RH WIND       PRES   REMARKS
K.C. INTL      MOCLDY    77  51  40 E9        30.06S
K.C. DOWNTOWN  CLEAR     79  53  40 SE7       30.05S
LEES SUMMIT    CLEAR     74  56  53 E6        30.07S
OLATHE - IXD   CLEAR     75  55  49 SE6       30.07S
OLATHE - OJC   CLEAR     75  53  46 SE5       30.06S
LAWRENCE       CLEAR     75  58  55 SE3       30.05S

$$

MOZ001>008-011>017-020>025-030>033-038>040-044>046-053-054-280200-
...NORTHERN AND CENTRAL MISSOURI...

CITY           SKY/WX    TMP DP  RH WIND       PRES   REMARKS
ST. JOSEPH     PTCLDY    75  56  51 SE6       30.06R
MOSBY          CLEAR     77  54  44 CALM      30.06S
WARRENSBURG    CLEAR     75  54  46 CALM      30.07S
WHITEMAN AFB   PTCLDY    77  57  50 E1        30.06R
CLINTON        CLEAR     75  63  64 CALM      30.08R
SEDALIA        CLEAR     79  56  45 CALM      30.08S
WARSAW         NOT AVBL
CHILLICOTHE    NOT AVBL
KIRKSVILLE     PTCLDY    75  60  59 CALM      30.09S

$$

MOZ041-047>049-056>058-063>065-088>090-097-280200-
...EASTERN AND SOUTHERN MISSOURI...

CITY           SKY/WX    TMP DP  RH WIND       PRES   REMARKS
ST. LOUIS INTL PTCLDY    76  58  53 N7        30.08R
SPIRIT OF STL  PTCLDY    78  58  49 N3        30.07R
COLUMBIA       PTCLDY    77  60  55 NE3       30.08R
JEFFERSON CITY CLEAR     80  56  43 NE3       30.06S
ROLLA          CLEAR     74  61  63 N5        30.08R
OSAGE BEACH    CLEAR     72  61  68 NE3       30.07S
SPRINGFIELD    CLEAR     79  65  62 E7        30.06S
BRANSON        PTCLDY    75  64  69 S5        30.08S
JOPLIN         CLEAR     78  66  66 CALM      30.05S
WEST PLAINS    CLOUDY    73  64  73 SE7       30.10R

$$

IAZ060-094-KSZ022-034>040-054-083-096-NEZ052-066-093-280200-
...KANSAS...SOUTHEAST NEBRASKA AND IOWA...

CITY           SKY/WX    TMP DP  RH WIND       PRES   REMARKS
TOPEKA         MOCLDY    75  58  55 SE6       30.05S
MANHATTAN      CLOUDY    76  63  64 CALM      30.03S
EMPORIA        MOCLDY    73  63  70 E7        30.03F
CHANUTE        PTCLDY    77  65  66 E6        30.03S
WICHITA        CLOUDY    78  64  61 SE8       30.01R
OMAHA          MOCLDY    78  54  43 SE8       30.02S
LINCOLN        CLEAR     75  48  38 S9        30.03R
LAMONI         MOCLDY    79  58  48 S3        30.07R
DES MOINES     MOCLDY    77  57  50 S6        30.04R

$$




USA.gov is the U.S. government's official web portal to all federal, state and local government web resources and services.